Vertical_Velocity
-0 -0 -1 -0 -2 -1 1 3 0 -0 -0 -1 0 -1 -1 -1 -3 -0 0 -3 -1 -2 -1 -1 -0 -0 -0 -2 -2 -2 0 0 -0 -0 -1 -2 0 1 0 -0 0 -0 0
3 -4 0 -1 -1 -1 -0 2 1 -0 -0 -1 -1 -2 -1 -1 -1 -3 -0 0 0 0 -0 -0 -0 1 1 0 0 -0 -2 -0 -1 -1 0 1 -0 -0 1 0 0 0 -0
2 -2 -1 0 1 -1 -1 -1 1 0 1 -1 0 1 -1 1 -2 -2 -1 1 1 -1 0 -1 1 1 1 1 0 -0 -0 -1 0 -2 -2 -1 -1 -1 -1 -0 -2 -0 -0
-0 1 -2 -0 1 -0 -1 -0 0 -0 1 1 -1 0 -0 2 1 -1 -0 -2 -2 1 -1 -2 -1 1 2 2 1 -0 1 1 1 0 -1 -1 -2 -2 -1 -1 -1 -1 -1
-3 0 -1 0 3 -0 -1 -1 0 3 2 -1 0 1 2 -0 1 0 -2 1 1 -0 -0 1 -1 -1 0 -1 -0 -0 -0 0 -1 -1 -0 0 1 0 -1 -1 -1 -0 -1
2 -3 -1 -2 2 1 -2 0 -0 0 0 1 1 1 3 -0 1 -1 -1 -1 -0 1 0 -1 -0 -1 -1 -1 -1 0 1 1 1 2 -0 1 -0 -0 1 -0 -1 -1 -0
-2 -1 2 -2 0 4 -1 1 0 3 1 1 -1 1 1 0 1 -2 1 1 -0 1 1 0 1 0 -1 -1 1 -0 -0 0 -0 -2 -3 -3 -2 -1 -1 1 1 0 -2
-1 -1 2 -1 -1 -0 -1 -1 1 0 2 1 -1 2 -0 2 2 1 -1 0 1 1 1 -0 0 0 -0 -1 -1 2 1 0 -1 -1 -0 -0 -1 -2 -1 -2 -1 1 -0
-2 -2 3 2 -0 -0 -2 -1 -1 1 0 1 2 -1 1 1 0 2 2 0 1 -1 0 1 -1 0 -1 -2 -0 2 1 1 -0 1 -0 -2 -2 -2 -1 -1 -1 -2 1
-2 2 4 0 1 -1 -1 -2 -3 2 -0 -1 -1 -0 -2 -2 -1 -2 3 2 0 0 -0 2 0 0 -1 -2 -2 -0 0 -0 -0 -1 0 1 -1 -1 -2 -2 -1 -1 -0
3 5 3 -1 2 -3 -1 -2 -3 1 0 2 -0 -2 -1 -3 -7 -0 -1 2 2 -0 1 -1 -1 -1 1 -2 -2 -1 1 -1 -1 -1 -1 -0 -0 -0 -0 -0 -0 -0 -1
4 4 1 -2 2 -0 0 -1 -2 2 -0 -0 -1 -1 0 -2 -3 -5 -2 1 -2 -3 1 -1 -1 -0 -2 -1 -1 -2 -1 -1 -2 -1 -0 0 0 -0 -1 -2 -2 -0 -1
7 2 -3 0 -1 -0 -1 3 -3 2 7 2 2 -1 -2 -2 0 -5 -4 -3 -1 -2 -2 3 1 1 -1 -2 0 -4 -3 -1 -2 -4 -4 -1 -1 -1 -1 -2 -0 0 -1
1 4 -1 0 -1 0 -2 1 1 -4 2 2 -0 1 -0 -5 1 -6 -3 -3 -2 -3 1 0 2 1 2 1 -1 -1 -3 -2 -5 -6 -4 -4 -3 -2 -3 -3 -3 -4 -4
4 5 1 -3 0 -1 1 1 -3 1 2 2 -4 1 -5 1 1 -5 -2 -1 -2 -4 -5 1 -1 1 -0 2 4 1 3 0 -1 -2 -1 -1 -2 -2 -4 -3 -3 -2 -3
2 0 -1 1 0 -0 -0 4 -7 1 -2 -0 -2 -7 3 -5 4 -2 -8 3 0 -1 -6 -2 -7 -3 -3 -4 -2 -2 -3 2 2 -0 2 1 0 -1 1 2 1 0 -0
-1 -2 -1 6 -1 -1 3 -1 -5 4 -5 2 2 -8 1 4 -1 -10 1 2 -1 -0 1 -7 -0 0 -5 -2 -2 -2 -2 -6 -11 -7 -1 -4 -2 0 1 1 1 -3 1
-5 -5 6 3 2 -3 2 1 -8 6 -3 -0 -2 -1 5 -4 -10 -2 2 -2 -4 1 -0 -0 -1 -4 -2 -1 -1 -1 -3 2 -3 -0 -4 -7 -3 -1 -3 -3 1 1 -1
0 1 3 3 -2 2 4 -8 5 -5 0 3 2 -0 -4 -5 -2 -2 -0 -2 -0 -1 1 1 -5 -0 -3 1 -2 1 -1 -1 -3 -0 2 1 0 -1 -2 3 -2 1 -1
3 -4 1 7 -3 1 -5 -3 -2 3 -3 7 -5 1 -2 -2 -3 -2 -2 -0 -0 0 0 -1 -2 -4 1 -1 1 0 -7 -4 -6 -2 0 -1 -1 1 -1 -0 -4 -4 -3
-2 6 5 -8 -2 -2 2 -10 -1 2 1 -1 -1 1 -4 -2 -1 -2 -0 0 -0 0 -0 -3 -5 -1 -2 -4 -3 -4 -5 -7 -4 -7 -5 -5 -8 -15 -9 -4 -1 -3 3
-2 2 -0 -1 3 -12 -1 2 6 -4 0 -3 0 -4 -0 -2 -4 -1 -1 0 -1 -3 -2 2 -2 3 -1 3 -2 -4 -1 -7 -24 2 -5 -19 0 0 1 -2 -3 1 -4
-3 6 4 -7 -4 2 4 1 -5 -2 -2 2 -3 0 -3 -2 -0 -1 1 1 -1 -0 6 3 1 1 -4 -2 -2 -1 1 1 -2 -7 1 -5 5 -6 -0 -6 -2 -0 -3
2 -9 -5 4 0 4 2 -3 -3 2 -2 -1 -2 -2 1 -1 2 0 -5 -6 -1 -0 -1 0 2 4 1 -2 7 6 3 -1 -7 -0 6 -5 -2 -3 -4 -7 -0 -1 2
-1 -3 2 -4 8 -6 -5 1 2 1 -2 -3 -1 -2 2 2 -1 -4 1 -1 -2 -2 -1 0 0 -3 -2 1 0 -1 -1 -3 -9 -3 1 -0 -5 -7 -2 -8 -0 -3 -0
2 -2 -1 3 -5 -3 -1 5 -3 -4 1 2 2 2 -2 -6 -2 2 -1 -1 -4 -2 -5 -7 -3 -0 1 -1 -4 0 1 3 0 -14 4 2 -3 -2 -11 -4 -6 0 -4
Height
1513 1516 1517 1519 1521 1524 1527 1528 1529 1530 1531 1532 1533 1534 1535 1537 1538 1540 1542 1544 1544 1545 1545 1545 1546 1545 1545 1544 1543 1543 1542 1541 1540 1539 1538 1538 1537 1535 1534 1533 1532 1531 1530
1510 1512 1515 1517 1519 1522 1525 1527 1527 1528 1530 1531 1532 1533 1534 1536 1537 1538 1540 1542 1543 1544 1544 1545 1545 1545 1544 1544 1543 1542 1541 1540 1539 1538 1537 1536 1535 1534 1532 1531 1530 1529 1528
1508 1509 1513 1515 1517 1519 1522 1525 1526 1527 1528 1529 1531 1532 1534 1535 1537 1538 1539 1541 1541 1542 1543 1544 1544 1544 1543 1542 1542 1541 1540 1539 1538 1536 1536 1535 1533 1532 1531 1529 1527 1526 1525
1505 1507 1510 1513 1516 1517 1520 1523 1525 1525 1527 1528 1530 1531 1533 1535 1536 1537 1540 1539 1541 1542 1542 1542 1543 1543 1542 1542 1541 1540 1539 1538 1537 1535 1534 1533 1532 1530 1529 1528 1526 1524 1522
1501 1505 1507 1512 1514 1515 1518 1521 1523 1525 1525 1527 1529 1531 1532 1534 1536 1537 1539 1540 1541 1541 1541 1541 1541 1541 1541 1541 1540 1539 1537 1536 1535 1534 1532 1531 1529 1528 1526 1525 1524 1522 1521
1497 1501 1505 1509 1513 1513 1516 1520 1522 1523 1524 1526 1528 1530 1532 1533 1535 1537 1538 1539 1540 1541 1541 1541 1540 1540 1540 1539 1538 1537 1535 1534 1532 1531 1529 1528 1526 1525 1523 1522 1521 1520 1519
1494 1500 1504 1506 1510 1512 1515 1519 1521 1523 1524 1525 1526 1529 1531 1533 1534 1535 1537 1538 1539 1540 1540 1540 1540 1539 1538 1537 1536 1534 1533 1532 1529 1528 1525 1524 1523 1522 1521 1520 1518 1517 1516
1493 1500 1504 1503 1507 1510 1513 1518 1521 1522 1522 1524 1525 1527 1530 1533 1534 1534 1536 1538 1538 1539 1538 1538 1538 1537 1536 1535 1534 1532 1531 1529 1527 1525 1523 1521 1519 1518 1516 1515 1515 1513 1512
1493 1501 1503 1501 1505 1507 1512 1516 1520 1521 1521 1522 1523 1525 1527 1529 1533 1535 1536 1537 1537 1537 1537 1537 1536 1534 1533 1533 1532 1530 1528 1526 1525 1522 1519 1517 1515 1513 1512 1511 1509 1508 1507
1494 1501 1500 1500 1504 1506 1511 1515 1520 1520 1520 1520 1522 1523 1524 1526 1531 1535 1536 1536 1537 1537 1536 1535 1534 1532 1531 1530 1529 1527 1526 1523 1521 1518 1516 1513 1510 1508 1506 1505 1503 1501 1500
1496 1496 1497 1499 1503 1505 1510 1514 1518 1520 1519 1520 1521 1522 1523 1525 1529 1531 1534 1534 1535 1536 1535 1534 1532 1531 1530 1528 1526 1524 1522 1519 1516 1513 1511 1508 1505 1502 1500 1498 1495 1493 1491
1492 1490 1494 1500 1503 1505 1510 1514 1517 1519 1518 1519 1520 1522 1522 1524 1526 1531 1531 1532 1531 1533 1532 1532 1531 1530 1527 1525 1523 1521 1518 1514 1511 1507 1504 1501 1498 1495 1492 1489 1487 1485 1483
1487 1486 1494 1499 1503 1506 1511 1514 1516 1519 1518 1519 1520 1521 1522 1523 1526 1527 1527 1531 1527 1528 1529 1530 1528 1527 1524 1522 1520 1515 1512 1508 1504 1501 1498 1495 1492 1488 1485 1483 1480 1478 1476
1488 1489 1493 1498 1503 1507 1512 1514 1516 1519 1520 1520 1521 1523 1522 1525 1525 1525 1524 1528 1525 1525 1526 1526 1525 1523 1521 1519 1514 1510 1506 1502 1498 1495 1492 1490 1487 1483 1480 1477 1474 1472 1469
1489 1488 1493 1499 1504 1508 1511 1514 1516 1519 1521 1519 1523 1523 1524 1525 1523 1524 1524 1526 1522 1522 1522 1521 1520 1519 1516 1513 1510 1505 1501 1497 1494 1490 1488 1486 1483 1479 1475 1472 1468 1466 1463
1486 1489 1496 1500 1504 1507 1510 1513 1516 1521 1520 1521 1521 1524 1524 1524 1523 1522 1525 1523 1521 1520 1520 1517 1516 1513 1510 1508 1505 1501 1497 1494 1490 1487 1485 1482 1478 1474 1471 1467 1464 1461 1458
1486 1490 1498 1500 1503 1507 1510 1513 1518 1520 1520 1521 1520 1522 1523 1522 1520 1522 1522 1520 1518 1517 1515 1512 1511 1509 1505 1503 1500 1496 1492 1488 1485 1483 1480 1476 1472 1469 1465 1462 1459 1455 1452
1483 1495 1498 1499 1502 1508 1511 1513 1519 1518 1520 1520 1519 1520 1520 1520 1520 1520 1519 1517 1515 1514 1511 1508 1506 1504 1502 1499 1494 1490 1487 1485 1482 1479 1475 1472 1468 1464 1460 1457 1453 1449 1445
1488 1493 1496 1500 1503 1509 1511 1515 1519 1519 1520 1519 1518 1518 1518 1518 1518 1518 1516 1514 1512 1510 1508 1504 1501 1500 1497 1493 1489 1486 1483 1480 1477 1473 1469 1466 1461 1458 1455 1452 1448 1444 1439
1487 1493 1498 1500 1506 1510 1511 1516 1519 1520 1519 1518 1517 1517 1515 1516 1515 1515 1513 1511 1508 1506 1504 1501 1497 1495 1492 1489 1485 1481 1476 1474 1470 1467 1463 1459 1455 1451 1448 1445 1441 1437 1433
1489 1496 1496 1500 1509 1510 1512 1517 1519 1518 1518 1517 1516 1514 1514 1513 1512 1510 1509 1507 1505 1503 1500 1496 1493 1491 1488 1484 1480 1477 1473 1469 1465 1461 1456 1452 1449 1446 1442 1437 1433 1430 1429
1491 1495 1498 1504 1508 1512 1513 1514 1515 1518 1518 1517 1514 1513 1512 1509 1508 1507 1505 1503 1502 1499 1498 1494 1491 1488 1485 1482 1477 1475 1470 1465 1457 1456 1451 1446 1444 1440 1436 1432 1428 1425 1423
1492 1497 1500 1506 1510 1511 1512 1513 1515 1517 1516 1514 1513 1512 1510 1508 1505 1504 1503 1501 1499 1497 1495 1492 1488 1486 1481 1478 1475 1470 1466 1462 1457 1451 1448 1440 1438 1433 1430 1427 1424 1420 1418
1493 1497 1503 1507 1510 1510 1513 1514 1515 1515 1514 1512 1511 1509 1507 1505 1503 1501 1499 1497 1495 1492 1491 1488 1485 1482 1478 1476 1472 1467 1462 1457 1453 1448 1444 1435 1432 1427 1424 1421 1418 1416 1415
1494 1498 1504 1507 1510 1511 1514 1514 1513 1512 1512 1510 1507 1506 1504 1503 1502 1498 1495 1492 1490 1488 1486 1483 1480 1477 1474 1471 1467 1462 1457 1452 1446 1441 1439 1432 1428 1422 1418 1413 1411 1411 1410
1496 1501 1506 1509 1510 1511 1512 1512 1511 1511 1510 1508 1506 1503 1501 1501 1498 1495 1492 1488 1484 1483 1479 1477 1475 1472 1469 1465 1462 1460 1454 1449 1444 1438 1435 1431 1426 1423 1412 1408 1408 1405 1402